Regional Weather Roundup
Issued by NWS Nashville, TN

Home | Current Version | Previous Version | Text Only | Print | Product List | Glossary On
Versions: 1 2 3 4 5 6 7 8 9 10 11 12 13 14 15 16 17 18 19 20 21 22 23 24 25 26 27 28 29 30 31 32 33 34 35 36 37 38 39 40 41 42 43 44 45 46 47 48 49 50
000
ASUS44 KOHX 220115
RWROHX
MIDDLE TENNESSEE HOURLY WEATHER ROUNDUP
NATIONAL WEATHER SERVICE NASHVILLE TN
700 PM CST SUN DEC 21 2014

NOTE: "FAIR" INDICATES FEW OR NO CLOUDS BELOW 12,000 FEET WITH
NO SIGNIFICANT WEATHER AND/OR OBSTRUCTIONS TO VISIBILITY.

* THESE REPORTS ARE NOT UNDER NWS QUALITY CONTROL AND MAY NOT
  REPORT WEATHER SUCH AS PRECIPITATION AND FOG.


TNZ005>011-023>034-057-059-062>066-078-080-220200
...NORTHERN MIDDLE TENNESSEE...

CITY           SKY/WX    TMP DP  RH WIND       PRES   REMARKS
CLARKSVILLE    PTCLDY    41  30  65 E6        30.06F
CROSSVILLE     CLOUDY    45  36  70 CALM      30.08S
GALLATIN       CLOUDY    47  36  65 CALM      30.08F
DICKSON        PTCLDY    46  36  66 SE3       30.04F
LEBANON        CLOUDY    47  38  71 CALM      30.06S
LIVINGSTON     CLOUDY    46  36  68 CALM      30.08S
NASHVILLE      MOCLDY    49  38  65 CALM      30.07F
WEST NASHVILLE CLOUDY    48  36  61 SE3       30.07F
PORTLAND       CLOUDY    45  28  53 E5        30.06F
SMYRNA         CLOUDY    47  39  73 CALM      30.09S
SPARTA         CLOUDY    46  39  76 CALM      30.07S
$$
TNZ056-058-060-061-075>077-079-093>097-220200
...SOUTHERN MIDDLE TENNESSEE...

CITY           SKY/WX    TMP DP  RH WIND       PRES   REMARKS
COLUMBIA       MOCLDY    46  45  93 CALM      30.04S
LEWISBURG      CLOUDY    45  40  82 CALM      30.06F
MCMINNVILLE    CLOUDY    48  41  76 CALM      30.08S
MURFREESBORO   CLOUDY    50  39  65 CALM      30.07S
SHELBYVILLE    CLOUDY    48  41  76 SE3       30.08S
TULLAHOMA      CLOUDY    48  37  66 SE5       30.07F
WINCHESTER     CLOUDY    46  41  81 SE5       30.08S
$$


...KEY TO REMARKS...
VSB - VISIBILITY IN MILES
WCI - WIND CHILL INDEX
HX  - HEAT INDEX




USA.gov is the U.S. government's official web portal to all federal, state and local government web resources and services.